Amsterdam, Netherlands

9:15 AM CEST on August 23, 2017 (GMT +0200)
Schiphol

Weather History for EHAM - November, 2011

Change the Weather History Date:

Sunday, November 20, 2011

  Actual Average Record
Temperature  
Mean Temperature 38 °F -  
Max Temperature 44 °F 44 °F 53 °F (2003)
Min Temperature 32 °F 36 °F 26 °F (1998)
Degree Days  
Heating Degree Days 27    
Moisture  
Dew Point 39 °F    
Average Humidity 100    
Maximum Humidity 100    
Minimum Humidity 93    
Precipitation  
Precipitation 0.00 in - - ()
Sea Level Pressure  
Sea Level Pressure 30.12 in    
Wind  
Wind Speed 2 mph ()    
Max Wind Speed 6 mph    
Max Gust Speed -    
Visibility 0.2 miles    
Events Fog , Snow    
Averages and records for this station are not official NWS values.
T = Trace of Precipitation, MM = Missing Value Source: Averaged Metar Reports

Daily Weather History Graph

Daily Weather History Graph

Search for Another Location

Airport or City:

Trip Planner

Search our weather history database for the weather conditions in past years. The results will help you decide how hot, cold, wet, or windy it might be!

Date:

Astronomy

Nov. 20, 2011 Rise Set
Actual Time 8:09 AM CET 4:42 PM CET
Civil Twilight 7:31 AM CET 5:20 PM CET
Nautical Twilight 6:49 AM CET 6:02 PM CET
Astronomical Twilight 6:09 AM CET 6:43 PM CET
Moon 1:40 AM CET (11/20) 1:58 PM CET (11/20)
Length of Visible Light 9h 49m
Length of Day
8h 32m
Waning Crescent, 30% of the Moon is Illuminated
Nov 20
Waning Crescent
Nov 25
New
Dec 2
First Quarter
Dec 10
Full
Dec 18
Last Quarter

Hourly Weather History & Observations

Time (CET) Temp. Windchill Dew Point Humidity Pressure Visibility Wind Dir Wind Speed Gust Speed Precip Events Conditions
12:25 AM 33.8 °F - 33.8 °F 100% 30.12 in 0.1 mi WNW 1.2 mph - N/A Fog Fog
12:55 AM 33.8 °F - 33.8 °F 100% 30.12 in 0.1 mi Calm Calm - N/A Fog Fog
1:00 AM 34 °F - 34 °F 100% 30.14 in 0 mi Calm Calm - - Fog Fog
1:25 AM 33.8 °F - 33.8 °F 100% 30.12 in 0.1 mi South 1.2 mph - N/A Fog Fog
1:55 AM 33.8 °F - 33.8 °F 100% 30.12 in 0.2 mi West 1.2 mph - N/A Fog Fog
2:25 AM 33.8 °F - 33.8 °F 100% 30.12 in 0.1 mi NNW 1.2 mph - N/A Fog Fog
2:55 AM 33.8 °F - 33.8 °F 100% 30.12 in 0.2 mi Calm Calm - N/A Fog Fog
3:25 AM 33.8 °F - 33.8 °F 100% 30.12 in 0.2 mi NW 2.3 mph - N/A Fog Fog
3:55 AM 33.8 °F - 33.8 °F 100% 30.12 in 0.1 mi WNW 1.2 mph - N/A Fog Fog
4:00 AM 33 °F - 33 °F 100% 30.13 in 0 mi WSW 2.2 mph - - Snow Light Snow Showers
4:25 AM 33.8 °F - 33.8 °F 100% 30.12 in 0.1 mi West 1.2 mph - N/A Fog Fog
4:55 AM 33.8 °F - 33.8 °F 100% 30.12 in 0.1 mi SSE 1.2 mph - N/A Fog Fog
5:25 AM 33.8 °F - 33.8 °F 100% 30.12 in 0.1 mi SSW 1.2 mph - N/A Fog Fog
5:55 AM 33.8 °F - 33.8 °F 100% 30.12 in 0.1 mi NNW 1.2 mph - N/A Fog Fog
6:25 AM 33.8 °F - 33.8 °F 100% 30.12 in 0.1 mi WSW 1.2 mph - N/A Fog Fog
6:55 AM 33.8 °F - 33.8 °F 100% 30.12 in 0.1 mi SSE 1.2 mph - N/A Fog Fog
7:00 AM 35 °F - 35 °F 99% 30.14 in 0 mi Calm Calm - - Fog Fog
7:25 AM 35.6 °F - 35.6 °F 100% 30.12 in 0.1 mi South 1.2 mph - N/A Fog Fog
7:55 AM 35.6 °F - 35.6 °F 100% 30.12 in 0.1 mi South 1.2 mph - N/A Fog Fog
8:25 AM 37.4 °F - 37.4 °F 100% 30.12 in 0.1 mi South 1.2 mph - N/A Fog Fog
8:55 AM 37.4 °F - 37.4 °F 100% 30.12 in 0.1 mi South 1.2 mph - N/A Fog Fog
9:25 AM 37.4 °F 34.9 °F 37.4 °F 100% 30.15 in 0.1 mi South 3.5 mph - N/A Fog Fog
9:55 AM 39.2 °F - 37.4 °F 93% 30.15 in 0.1 mi SSW 2.3 mph - N/A Fog Fog
10:00 AM 38 °F - 38 °F 100% 30.17 in 0 mi SSW 2.2 mph - - Fog Fog
10:25 AM 41.0 °F - 39.2 °F 93% 30.15 in 0.1 mi Variable 1.2 mph - N/A Fog Fog
11:25 AM 42.8 °F - 42.8 °F 100% 30.15 in 0.5 mi Variable 2.3 mph - N/A Fog Patches of Fog
11:55 AM 42.8 °F 41.1 °F 42.8 °F 100% 30.15 in 0.4 mi NNW 3.5 mph - N/A Fog Patches of Fog
12:25 PM 42.8 °F 41.1 °F 42.8 °F 100% 30.15 in 0.1 mi NW 3.5 mph - N/A Fog Fog
12:55 PM 42.8 °F 41.1 °F 42.8 °F 100% 30.12 in 0.1 mi NW 3.5 mph - N/A Fog Fog
1:25 PM 42.8 °F - 42.8 °F 100% 30.12 in 0.1 mi Variable 2.3 mph - N/A Fog Fog
1:55 PM 42.8 °F 41.1 °F 42.8 °F 100% 30.12 in 0.1 mi East 3.5 mph - N/A Fog Fog
2:25 PM 42.8 °F - 42.8 °F 100% 30.12 in 0.3 mi Variable 2.3 mph - N/A Fog Patches of Fog
2:55 PM 44.6 °F - 44.6 °F 100% 30.12 in 0.7 mi Variable 1.2 mph - N/A   Overcast
3:25 PM 44.6 °F 43.1 °F 44.6 °F 100% 30.12 in 0.3 mi South 3.5 mph - N/A   Overcast
3:55 PM 44.6 °F - 44.6 °F 100% 30.09 in 0.9 mi Variable 2.3 mph - N/A   Overcast
4:00 PM 44 °F - 44 °F 98% 30.12 in 1 mi South 2.2 mph - - Fog Fog
4:25 PM 44.6 °F - 44.6 °F 100% 30.09 in 0.9 mi Variable 2.3 mph - N/A Fog Patches of Fog
4:55 PM 44.6 °F - 44.6 °F 100% 30.09 in 0.9 mi Variable 2.3 mph - N/A   Overcast
5:25 PM 42.8 °F 40.1 °F 42.8 °F 100% 30.09 in 1.0 mi North 4.6 mph - N/A   Overcast
5:55 PM 42.8 °F - 42.8 °F 100% 30.09 in 0.5 mi Variable 2.3 mph - N/A   Overcast
6:25 PM 42.8 °F 41.1 °F 42.8 °F 100% 30.09 in 0.2 mi ENE 3.5 mph - N/A Fog Fog
6:55 PM 41.0 °F - 41.0 °F 100% 30.12 in 0.2 mi Variable 2.3 mph - N/A Fog Fog
7:25 PM 41.0 °F - 41.0 °F 100% 30.09 in 0.1 mi Variable 2.3 mph - N/A Fog Fog
7:55 PM 41.0 °F - 41.0 °F 100% 30.12 in 0.2 mi Variable 2.3 mph - N/A Fog Fog
8:25 PM 39.2 °F 35.9 °F 39.2 °F 100% 30.12 in 0.2 mi East 4.6 mph - N/A Fog Fog
8:55 PM 39.2 °F - 39.2 °F 100% 30.12 in 0.2 mi Variable 2.3 mph - N/A Fog Fog
9:25 PM 39.2 °F - 39.2 °F 100% 30.12 in 0.2 mi Variable 2.3 mph - N/A Fog Fog
9:55 PM 39.2 °F - 39.2 °F 100% 30.12 in 0.2 mi Variable 1.2 mph - N/A Fog Fog
10:00 PM 40 °F - 40 °F 99% 30.13 in 0 mi 2.2 mph - - Fog Fog
10:25 PM 39.2 °F 35.0 °F 39.2 °F 100% 30.09 in 0.2 mi NNE 5.8 mph - N/A Fog Fog
11:25 PM 39.2 °F 37.0 °F 39.2 °F 100% 30.09 in 0.2 mi NE 3.5 mph - N/A Fog Fog
11:55 PM 37.4 °F 34.9 °F 37.4 °F 100% 30.09 in 0.2 mi ENE 3.5 mph - N/A Fog Fog